Location: Unspecified
(0.0000°N, 0.0000°E)
Time: 22:03:28
(UTC+00:00)

A-11 Canister half - All Passes

Search period start: 23 July 2024 00:00
Search period end: 02 August 2024 00:00
Orbit: 1524 x 1684 km, 47.3° (Epoch: 23 July)

Date Brightness Start Highest point End Pass type
(mag) Time Alt. Az. Time Alt. Az. Time Alt. Az.
23 Jul - 00:08:32 10° SSW 00:17:42 39° SE 00:26:53 10° ENE visible
23 Jul - 02:13:04 10° WSW 02:22:41 48° NW 02:32:17 10° NNE visible
23 Jul - 10:59:46 10° NNE 11:04:07 14° NE 11:08:25 10° ENE daylight
23 Jul - 13:00:01 10° NW 13:09:21 79° NE 13:18:40 10° SE daylight
23 Jul - 15:08:04 10° W 15:14:20 20° SW 15:20:40 10° S daylight
23 Jul - 23:46:55 10° SSW 23:55:54 36° SE 00:04:54 10° ENE night (unlit)
24 Jul - 01:51:10 10° WSW 02:00:53 52° NW 02:10:36 10° NNE visible
24 Jul - 10:38:41 10° NNE 10:42:17 13° NE 10:45:51 10° ENE daylight
24 Jul - 12:38:18 10° NNW 12:47:37 74° NE 12:56:53 10° SE daylight
24 Jul - 14:45:55 10° W 14:52:32 22° SW 14:59:14 10° S daylight
24 Jul - 23:25:19 10° SSW 23:34:05 34° SE 23:42:52 10° ENE night (unlit)
25 Jul - 01:29:16 10° SW 01:39:05 55° NW 01:48:55 10° NNE visible
25 Jul - 10:17:49 10° NNE 10:20:26 11° NE 10:23:02 10° ENE daylight
25 Jul - 12:16:34 10° NNW 12:25:52 69° NE 12:35:05 10° SE daylight
25 Jul - 14:23:48 10° W 14:30:44 24° SW 14:37:46 10° S daylight
25 Jul - 23:03:44 10° S 23:12:16 31° SE 23:20:50 10° ENE night (unlit)
26 Jul - 01:07:23 10° SW 01:17:17 59° NW 01:27:13 10° NNE visible
26 Jul - 09:57:57 10° NE 09:58:35 10° NE 09:59:14 10° NE daylight
26 Jul - 11:54:52 10° NNW 12:04:07 64° NE 12:13:17 10° SE daylight
26 Jul - 14:01:43 10° W 14:08:57 26° SW 14:16:15 10° S daylight
26 Jul - 22:42:11 10° S 22:50:27 29° SE 22:58:46 10° ENE night (unlit)
27 Jul - 00:45:32 10° SW 00:55:29 63° NW 01:05:30 10° NNE visible
27 Jul - 02:58:48 10° WNW 03:01:14 11° NW 03:03:39 10° NNW visible
27 Jul - 11:33:10 10° NNW 11:42:22 60° NE 11:51:28 10° SE daylight
27 Jul - 13:39:40 10° WNW 13:47:11 28° SW 13:54:44 10° S daylight
27 Jul - 22:20:39 10° S 22:28:38 27° SE 22:36:39 10° ENE night (unlit)
28 Jul - 00:23:42 10° SW 00:33:41 68° NW 00:43:46 10° NNE visible
28 Jul - 02:35:43 10° WNW 02:39:21 12° NW 02:42:59 10° NNW visible
28 Jul - 11:11:28 10° NNW 11:20:38 56° NE 11:29:38 10° SE daylight
28 Jul - 13:17:38 10° WNW 13:25:24 30° SW 13:33:13 10° S daylight
28 Jul - 21:59:08 10° S 22:06:48 25° SE 22:14:32 10° E night (unlit)
29 Jul - 00:01:51 10° SW 00:11:54 73° NW 00:22:02 10° NNE visible
29 Jul - 02:12:59 10° WNW 02:17:28 14° NW 02:21:57 10° NNW visible
29 Jul - 10:49:48 10° NNW 10:58:52 52° NE 11:07:47 10° SE daylight
29 Jul - 12:55:38 10° WNW 13:03:38 32° SW 13:11:40 10° S daylight
29 Jul - 21:37:40 10° S 21:44:59 23° SE 21:52:22 10° E night (unlit)
29 Jul - 23:40:03 10° SW 23:50:06 77° NW 00:00:16 10° NE visible
30 Jul - 01:50:27 10° WNW 01:55:36 15° NW 02:00:46 10° NNW visible
30 Jul - 10:28:08 10° NNW 10:37:07 48° NE 10:45:56 10° ESE daylight
30 Jul - 12:33:39 10° WNW 12:41:52 35° SW 12:50:05 10° SSE daylight
30 Jul - 21:16:13 10° S 21:23:09 21° SE 21:30:09 10° E night (unlit)
30 Jul - 23:18:15 10° SW 23:28:18 82° NW 23:38:30 10° NE night (unlit)
31 Jul - 01:28:00 10° W 01:33:44 16° NW 01:39:31 10° N visible
31 Jul - 10:06:29 10° NNW 10:15:21 45° NE 10:24:03 10° ESE daylight
31 Jul - 12:11:42 10° WNW 12:20:06 38° SW 12:28:30 10° SSE daylight
31 Jul - 20:54:49 10° S 21:01:19 19° SE 21:07:53 10° E visible
31 Jul - 22:56:28 10° SW 23:06:31 87° NW 23:16:43 10° NE night (unlit)
01 Aug - 01:05:39 10° W 01:11:52 18° NW 01:18:09 10° N visible
01 Aug - 09:44:50 10° NNW 09:53:36 41° NE 10:02:09 10° ESE daylight
01 Aug - 11:49:45 10° WNW 11:58:21 41° SW 12:06:54 10° SSE daylight
01 Aug - 20:33:26 10° S 20:39:29 18° SE 20:45:34 10° E visible
01 Aug - 22:34:42 10° SW 22:44:44 88° SE 22:54:55 10° NE night (unlit)
